Regional Weather Roundup
Issued by NWS

Home | Current Version | Previous Version | Text Only | Print | Product List | Glossary On
Versions: 1 2 3 4 5 6 7 8 9 10 11 12 13 14 15 16 17 18 19 20 21 22 23 24 25 26 27 28 29 30 31 32 33 34 35 36 37 38 39 40 41 42 43 44 45 46 47 48 49 50
000
ASUS43 KLMK 221702
RWRKY
KENTUCKY REGIONAL WEATHER ROUNDUP
NATIONAL WEATHER SERVICE LOUISVILLE KY
1200 PM EST SAT NOV 22 2014

NOTE "FAIR" INDICATES FEW OR NO CLOUDS BELOW 12,000 FEET
WITH NO SIGNIFICANT WEATHER AND/OR OBSTRUCTIONS TO VISIBILITY.

KYZ001>023-026-027-061>063-070>075-221800-
WESTERN AND SOUTH CENTRAL KENTUCKY

CITY           SKY/WX    TMP DP  RH WIND       PRES   REMARKS
PADUCAH        CLOUDY    61  41  47 SW10G20   30.20F
HENDERSON      CLOUDY    63  39  42 SW22      30.20F
OWENSBORO      PTSUNNY   61  40  45 S16G25    30.22F
HOPKINSVILLE   CLOUDY    59  35  39 S15       30.25F
BOWLING GREEN  CLOUDY    58  31  35 S14       30.29F
GLASGOW        NOT AVBL
$$

KYZ024-025-028>034-038-045-046-053-221800-
NORTH CENTRAL KENTUCKY

CITY           SKY/WX    TMP DP  RH WIND       PRES   REMARKS
LOUISVILLE/SDF PTSUNNY   61  34  36 S18G26    30.22F
LOUISVILLE/LOU MOSUNNY   59  34  39 S15G24    30.23F
FORT KNOX      MOSUNNY   60  35  39 S18G30    30.23F
$$

KYZ035>037-039>044-047>052-055>060-089>105-221800-
NORTHEAST KENTUCKY

CITY           SKY/WX    TMP DP  RH WIND       PRES   REMARKS
LEXINGTON      CLOUDY    56  31  38 SW14      30.27F
COVINGTON      PTSUNNY   53  33  46 S14G24    30.22F
FRANKFORT      CLOUDY    56  31  38 SW16G26   30.25F
$$

KYZ054-064>069-076>088-106>120-221800-
SOUTHEAST KENTUCKY

CITY           SKY/WX    TMP DP  RH WIND       PRES   REMARKS
JACKSON        MOSUNNY   54  24  31 VRB7      30.32F
LONDON         MOSUNNY   56  25  30 S12       30.34F
SOMERSET       NOT AVBL
MIDDLESBORO    NOT AVBL
MONTICELLO     MOSUNNY   59  29  32 S14       30.35F
$$



USA.gov is the U.S. government's official web portal to all federal, state and local government web resources and services.